Time,TemperatureF,DewpointF,PressureIn,WindDirection,WindDirectionDegrees,WindSpeedMPH,WindSpeedGustMPH,Humidity,HourlyPrecipIn,Conditions,Clouds,dailyrainin,SoftwareType,DateUTC
2013-01-27 00:22:00,45.0,42.0,-100.00,NNE,28,1.0,-999.0,90,0.00,,,-99.99,,2013-01-27 05:22:00,
2013-01-27 00:32:00,45.0,42.0,-100.00,NNE,28,1.0,-999.0,90,0.00,,,-99.99,,2013-01-27 05:32:00,
2013-01-27 00:42:00,45.0,42.0,-100.00,NNE,28,1.0,-999.0,90,0.00,,,-99.99,,2013-01-27 05:42:00,
2013-01-27 01:21:00,43.0,40.0,-100.00,NNE,19,2.0,-999.0,89,0.00,,,-99.99,,2013-01-27 06:21:00,
2013-01-27 01:32:00,43.0,40.0,-100.00,NNE,19,2.0,-999.0,89,0.00,,,-99.99,,2013-01-27 06:32:00,
2013-01-27 01:42:00,43.0,40.0,-100.00,NNE,19,2.0,-999.0,89,0.00,,,-99.99,,2013-01-27 06:42:00,
2013-01-27 02:21:00,41.0,39.0,-100.00,NNE,22,2.0,-999.0,91,0.00,,,-99.99,,2013-01-27 07:21:00,
2013-01-27 02:32:00,41.0,39.0,-100.00,NNE,22,2.0,-999.0,91,0.00,,,-99.99,,2013-01-27 07:32:00,
2013-01-27 02:42:00,41.0,39.0,-100.00,NNE,22,2.0,-999.0,91,0.00,,,-99.99,,2013-01-27 07:42:00,
2013-01-27 03:22:00,40.0,38.0,-100.00,NNE,22,2.0,-999.0,93,0.00,,,-99.99,,2013-01-27 08:22:00,
2013-01-27 03:32:00,40.0,38.0,-100.00,NNE,22,2.0,-999.0,93,0.00,,,-99.99,,2013-01-27 08:32:00,
2013-01-27 03:42:00,40.0,38.0,-100.00,NNE,22,2.0,-999.0,93,0.00,,,-99.99,,2013-01-27 08:42:00,
2013-01-27 04:22:00,40.0,38.0,-100.00,NNE,21,3.0,-999.0,95,0.00,,,-99.99,,2013-01-27 09:22:00,
2013-01-27 04:32:00,40.0,38.0,-100.00,NNE,21,3.0,-999.0,95,0.00,,,-99.99,,2013-01-27 09:32:00,
2013-01-27 04:42:00,40.0,38.0,-100.00,NNE,21,3.0,-999.0,95,0.00,,,-99.99,,2013-01-27 09:42:00,
2013-01-27 05:21:00,39.0,37.0,-100.00,NNE,26,3.0,-999.0,94,0.00,,,-99.99,,2013-01-27 10:21:00,
2013-01-27 05:32:00,39.0,37.0,-100.00,NNE,26,3.0,-999.0,94,0.00,,,-99.99,,2013-01-27 10:32:00,
2013-01-27 05:42:00,39.0,37.0,-100.00,NNE,26,3.0,-999.0,94,0.00,,,-99.99,,2013-01-27 10:42:00,
2013-01-27 06:11:00,39.0,36.0,-100.00,NNE,26,5.0,-999.0,88,0.00,,,-99.99,,2013-01-27 11:11:00,
2013-01-27 06:22:00,39.0,36.0,-100.00,NNE,26,5.0,-999.0,88,0.00,,,-99.99,,2013-01-27 11:22:00,
2013-01-27 06:32:00,39.0,36.0,-100.00,NNE,26,5.0,-999.0,88,0.00,,,-99.99,,2013-01-27 11:32:00,
2013-01-27 06:42:00,39.0,36.0,-100.00,NNE,26,5.0,-999.0,88,0.00,,,-99.99,,2013-01-27 11:42:00,
2013-01-27 07:22:00,38.0,34.0,-100.00,NNE,23,4.0,-999.0,85,0.00,,,-99.99,,2013-01-27 12:22:00,
2013-01-27 07:32:00,38.0,34.0,-100.00,NNE,23,4.0,-999.0,85,0.00,,,-99.99,,2013-01-27 12:32:00,
2013-01-27 07:42:00,38.0,34.0,-100.00,NNE,23,4.0,-999.0,85,0.00,,,-99.99,,2013-01-27 12:42:00,
2013-01-27 08:12:00,38.0,34.0,-100.00,NNE,20,4.0,-999.0,85,0.00,,,-99.99,,2013-01-27 13:12:00,
2013-01-27 08:22:00,38.0,34.0,-100.00,NNE,20,4.0,-999.0,85,0.00,,,-99.99,,2013-01-27 13:22:00,
2013-01-27 08:32:00,38.0,34.0,-100.00,NNE,20,4.0,-999.0,85,0.00,,,-99.99,,2013-01-27 13:32:00,
2013-01-27 08:42:00,38.0,34.0,-100.00,NNE,20,4.0,-999.0,85,0.00,,,-99.99,,2013-01-27 13:42:00,
2013-01-27 09:22:00,40.0,34.0,-100.00,NNE,15,6.0,-999.0,79,0.00,,,-99.99,,2013-01-27 14:22:00,
2013-01-27 09:33:00,40.0,34.0,-100.00,NNE,15,6.0,-999.0,79,0.00,,,-99.99,,2013-01-27 14:33:00,
2013-01-27 09:43:00,40.0,34.0,-100.00,NNE,15,6.0,-999.0,79,0.00,,,-99.99,,2013-01-27 14:43:00,
2013-01-27 10:22:00,45.0,37.0,-100.00,NNE,24,6.0,-999.0,73,0.00,,,-99.99,,2013-01-27 15:22:00,
2013-01-27 10:32:00,45.0,37.0,-100.00,NNE,24,6.0,-999.0,73,0.00,,,-99.99,,2013-01-27 15:32:00,
2013-01-27 10:42:00,45.0,37.0,-100.00,NNE,24,6.0,-999.0,73,0.00,,,-99.99,,2013-01-27 15:42:00,
2013-01-27 11:22:00,49.0,39.0,-100.00,NNE,32,7.0,-999.0,70,0.00,,,-99.99,,2013-01-27 16:22:00,
2013-01-27 11:32:00,49.0,39.0,-100.00,NNE,32,7.0,-999.0,70,0.00,,,-99.99,,2013-01-27 16:32:00,
2013-01-27 11:42:00,49.0,39.0,-100.00,NNE,32,7.0,-999.0,70,0.00,,,-99.99,,2013-01-27 16:42:00,
2013-01-27 12:22:00,52.0,41.0,-100.00,ENE,71,7.0,-999.0,66,0.00,,,-99.99,,2013-01-27 17:22:00,
2013-01-27 12:32:00,52.0,41.0,-100.00,ENE,71,7.0,-999.0,66,0.00,,,-99.99,,2013-01-27 17:32:00,
2013-01-27 12:42:00,52.0,41.0,-100.00,ENE,71,7.0,-999.0,66,0.00,,,-99.99,,2013-01-27 17:42:00,
2013-01-27 13:23:00,54.0,41.0,-100.00,NE,41,6.0,-999.0,61,0.00,,,-99.99,,2013-01-27 18:23:00,
2013-01-27 13:32:00,54.0,41.0,-100.00,NE,41,6.0,-999.0,61,0.00,,,-99.99,,2013-01-27 18:32:00,
2013-01-27 13:42:00,54.0,41.0,-100.00,NE,41,6.0,-999.0,61,0.00,,,-99.99,,2013-01-27 18:42:00,
2013-01-27 14:22:00,55.0,40.0,-100.00,ENE,63,5.0,-999.0,56,0.00,,,-99.99,,2013-01-27 19:22:00,
2013-01-27 14:33:00,55.0,40.0,-100.00,ENE,63,5.0,-999.0,56,0.00,,,-99.99,,2013-01-27 19:33:00,
2013-01-27 14:42:00,55.0,40.0,-100.00,ENE,63,5.0,-999.0,56,0.00,,,-99.99,,2013-01-27 19:42:00,
2013-01-27 15:22:00,55.0,40.0,-100.00,ENE,67,6.0,-999.0,57,0.00,,,-99.99,,2013-01-27 20:22:00,
2013-01-27 15:33:00,55.0,40.0,-100.00,ENE,67,6.0,-999.0,57,0.00,,,-99.99,,2013-01-27 20:33:00,
2013-01-27 15:42:00,55.0,40.0,-100.00,ENE,67,6.0,-999.0,57,0.00,,,-99.99,,2013-01-27 20:42:00,
2013-01-27 16:22:00,54.0,39.0,-100.00,ENE,73,6.0,-999.0,57,0.00,,,-99.99,,2013-01-27 21:22:00,
2013-01-27 16:33:00,54.0,39.0,-100.00,ENE,73,6.0,-999.0,57,0.00,,,-99.99,,2013-01-27 21:33:00,
2013-01-27 16:42:00,54.0,39.0,-100.00,ENE,73,6.0,-999.0,57,0.00,,,-99.99,,2013-01-27 21:42:00,
2013-01-27 17:22:00,53.0,40.0,-100.00,ENE,65,6.0,-999.0,60,0.00,,,-99.99,,2013-01-27 22:22:00,
2013-01-27 17:32:00,53.0,40.0,-100.00,ENE,65,6.0,-999.0,60,0.00,,,-99.99,,2013-01-27 22:32:00,
2013-01-27 17:42:00,53.0,40.0,-100.00,ENE,65,6.0,-999.0,60,0.00,,,-99.99,,2013-01-27 22:42:00,
2013-01-27 18:22:00,49.0,38.0,-100.00,NE,46,5.0,-999.0,65,0.00,,,-99.99,,2013-01-27 23:22:00,
2013-01-27 18:32:00,49.0,38.0,-100.00,NE,46,5.0,-999.0,65,0.00,,,-99.99,,2013-01-27 23:32:00,
2013-01-27 18:42:00,49.0,38.0,-100.00,NE,46,5.0,-999.0,65,0.00,,,-99.99,,2013-01-27 23:42:00,
2013-01-27 19:22:00,47.0,40.0,-100.00,ENE,60,3.0,-999.0,77,0.00,,,-99.99,,2013-01-28 00:22:00,
2013-01-27 19:33:00,47.0,40.0,-100.00,ENE,60,3.0,-999.0,77,0.00,,,-99.99,,2013-01-28 00:33:00,
2013-01-27 19:42:00,47.0,40.0,-100.00,ENE,60,3.0,-999.0,77,0.00,,,-99.99,,2013-01-28 00:42:00,
2013-01-27 20:22:00,46.0,39.0,-100.00,NNE,31,4.0,-999.0,77,0.00,,,-99.99,,2013-01-28 01:22:00,
2013-01-27 20:33:00,46.0,39.0,-100.00,NNE,31,4.0,-999.0,77,0.00,,,-99.99,,2013-01-28 01:33:00,
2013-01-27 20:42:00,46.0,39.0,-100.00,NNE,31,4.0,-999.0,77,0.00,,,-99.99,,2013-01-28 01:42:00,
2013-01-27 21:22:00,45.0,39.0,-100.00,NNE,30,4.0,-999.0,79,0.00,,,-99.99,,2013-01-28 02:22:00,
2013-01-27 21:32:00,45.0,39.0,-100.00,NNE,30,4.0,-999.0,79,0.00,,,-99.99,,2013-01-28 02:32:00,
2013-01-27 21:42:00,45.0,39.0,-100.00,NNE,30,4.0,-999.0,79,0.00,,,-99.99,,2013-01-28 02:42:00,
2013-01-27 22:22:00,44.0,40.0,-100.00,NNE,21,4.0,-999.0,87,0.00,,,-99.99,,2013-01-28 03:22:00,
2013-01-27 22:32:00,44.0,40.0,-100.00,NNE,21,4.0,-999.0,87,0.00,,,-99.99,,2013-01-28 03:32:00,
2013-01-27 22:42:00,44.0,40.0,-100.00,NNE,21,4.0,-999.0,87,0.00,,,-99.99,,2013-01-28 03:42:00,
2013-01-27 23:22:00,43.0,39.0,-100.00,NNE,23,4.0,-999.0,86,0.00,,,-99.99,,2013-01-28 04:22:00,
2013-01-27 23:32:00,43.0,39.0,-100.00,NNE,23,4.0,-999.0,86,0.00,,,-99.99,,2013-01-28 04:32:00,
2013-01-27 23:42:00,43.0,39.0,-100.00,NNE,23,4.0,-999.0,86,0.00,,,-99.99,,2013-01-28 04:42:00,